Regional Weather Roundup
Issued by NWS

Home | Current Version | Previous Version | Text Only | Print | Product List | Glossary On
Versions: 1 2 3 4 5 6 7 8 9 10 11 12 13 14 15 16 17 18 19 20 21 22 23 24 25 26 27 28 29 30 31 32 33 34 35 36 37 38 39 40 41 42 43 44 45 46 47 48 49 50
000
ASUS42 KTBW 280910
RWRFL
FLORIDA REGIONAL WEATHER ROUNDUP
NATIONAL WEATHER SERVICE TAMPA BAY RUSKIN FL
500 AM EDT THU AUG 28 2014

NOTE: "FAIR" INDICATES FEW OR NO CLOUDS BELOW 12,000 FEET WITH NO
SIGNIFICANT WEATHER AND/OR OBSTRUCTIONS TO VISIBILITY.


FLZ001>010-012>015-112-114-115-281000-
PANHANDLE FLORIDA

CITY           SKY/WX    TMP DP  RH WIND       PRES   REMARKS
PENSACOLA      CLEAR     73  71  93 CALM      29.98S
PENSACOLA NAS  CLEAR     71  70  96 CALM      29.97F
MILTON NAS     PTCLDY    70  68  93 CALM      29.98F FOG
CRESTVIEW      PTCLDY    68  66  93 CALM      30.00S
DUKE FIELD     FAIR      68  68  99 CALM      29.98F
VALPARAISO     PTCLDY    73  68  83 NW2       29.98F
TRI COUNTY     LGT RAIN  66  66 100 CALM      29.99F
PANAMA CITY    FAIR      72  69  90 CALM      29.97F
TYNDALL AFB    PTCLDY    73  72  96 CALM      29.99S
APALACHICOLA   CLEAR     72  69  90 CALM      29.98S

STATION/POSITION SKY/WX   TEMP    WIND        PRES    WAVE   SWELL
                          AIR SEA DIR/SP/G            HT/PER HT/PER
                          (F)     (DEG/KT/KT) (MB)    (FT/S) (FT/S)
30.1N   87.6W              83 84   CALM  /  2 1015.2F   2/ 7   2/ 7
29.2N   88.2W              84 85  110/  8/ 10 1014.7F
28.8N   86.0W              84 86   70/  8/ 10 1014.4    2/ 5   2/ 5
PANAMA CITY BEAC           79 85  340/  4/  4 1015.0F
CAPE SAN BLAS    NOT AVBL
TOWER C                    82      10/  8/  9 1014.8F
28.5N   84.5W              84 86  110/ 16/ 17 1014.0F   3/ 4

$$
FLZ011-016>038-118-127-128-134-139-239-281000-
NORTH FLORIDA

CITY           SKY/WX    TMP DP  RH WIND       PRES   REMARKS
MARIANNA       CLEAR     71  70  96 CALM      29.98S
TALLAHASSEE    PTCLDY    71  66  84 E3        30.00R
PERRY          CLEAR     68  68 100 CALM      30.00S
CROSS CITY       N/A     65  63  93 CALM      29.99F
LAKE CITY      FAIR      63  63 100 CALM      30.00S
GAINESVILLE    CLEAR     65  64  97 CALM      30.00S
MAYPORT NAS    MOCLDY    74  71  91 W3        29.99S
JACKSONVILLE   CLEAR     65  64  97 CALM      29.99S
JAX NAS        CLEAR     74  66  76 W3        30.00S
JAX CRAIG      CLEAR     69  66  90 CALM      29.99S
JAX CECIL      CLEAR     63  61  94 CALM      30.00S
FERNANDINA BEA FAIR      72  68  88 NW3       29.98S
ST AUGUSTINE   CLEAR     71  67  87 W3        30.00S

STATION/POSITION SKY/WX   TEMP    WIND        PRES    WAVE   SWELL
                          AIR SEA DIR/SP/G            HT/PER HT/PER
                          (F)     (DEG/KT/KT) (MB)    (FT/S) (FT/S)
SHELL POINT                76     320/  4/  6   N/A
KEATON BEACH               72      90/  5/  5 1015.6F
CEDAR KEY                  81     130/  9/ 10 1015.8F
FERNANDINA                 74 83  270/  4/  5 1015.2S
30.7N   81.3W                 83                N/A     3/11   2/11
MAYPORT                    75 83  290/  4/  5   N/A
31.4N   80.9W              80 84  130/  2/  4 1015.7F   4/10   3/10
ST AUGUSTINE               72     260/  5/  5 1016.1S

$$
FLZ040-043>046-052-053-057-058-063-144-281000-
INTERIOR CENTRAL FLORIDA

CITY           SKY/WX    TMP DP  RH WIND       PRES   REMARKS
OCALA          PTCLDY    68  64  88 N3        30.00S
LEESBURG       PTCLDY    75  70  84 CALM      30.00S
SANFORD        PTCLDY    73  70  90 CALM      29.99S
ORLANDO EXEC   CLEAR     78  71  79 CALM      29.99S
ORLANDO INTL   PTCLDY    75  72  90 N3        29.99S
WINTER HAVEN   CLEAR     75  72  90 NE3       29.99F
LAKELAND       CLEAR     73  73 100 CALM      29.98S
BARTOW         FAIR      73  73 100 E3        29.99S
OKEECHOBEE       N/A     72  72 100 MISG      29.97

$$
FLZ041-047-054-059-064-141-147-281000-
EAST CENTRAL FLORIDA

CITY           SKY/WX    TMP DP  RH WIND       PRES   REMARKS
DAYTONA BEACH  PTCLDY    72  69  90 CALM      29.99S
DELAND         SUNNY     70  68  94 CALM      30.00S
JFK SPACE CTR  CLEAR     74  73  97 N1        29.98S
CAPE CANAVERAL CLEAR     74  73  96 CALM      29.97S
PATRICK AFB    CLEAR     79  76  89 CALM      29.98S
MELBOURNE      CLEAR     76  74  93 CALM      29.97F
VERO BEACH     CLEAR     72  71  97 CALM      29.96F
FT PIERCE      CLEAR     72  70  93 CALM      29.96F
STUART         CLEAR     73  72  94 CALM      29.97F

STATION/POSITION SKY/WX   TEMP    WIND        PRES    WAVE   SWELL
                          AIR SEA DIR/SP/G            HT/PER HT/PER
                          (F)     (DEG/KT/KT) (MB)    (FT/S) (FT/S)
28.5N   80.2W              82 83  140/  4/  6 1015.3S
28.9N   78.5W              82 83  160/  6/ 10 1015.2F   9/10   8/10
TRIDENT PIER               76 83   CALM  /  1 1014.5F
28.4N   80.5W                 82                N/A     3/11   2/11
27.6N   80.2W                 83                N/A     5/10   3/11

$$
FLZ050-056-061-142-242-148-248-149-249-151-251-155-255-
160-260-281000-
WEST CENTRAL FLORIDA

CITY           SKY/WX    TMP DP  RH WIND       PRES   REMARKS
CRYSTAL RIVER  PTSUNNY   70  68  94 CALM      29.99S
INVERNESS      PTSUNNY   70  59  68 CALM      30.00S
BROOKSVILLE    CLOUDY    74  71  91 CALM      30.00S
ZEPHYRHILLS    FAIR      70  70 100 CALM      30.00S
CLEARWATER     CLEAR     79  73  82 E7        29.97S
TAMPA INTL     MOCLDY    78  71  79 VRB3      29.98S
TAMPA EXEC     CLEAR     77  72  83 CALM      29.98F
MACDILL AFB    CLEAR     75  74  95 E5        29.97S
ST PETERSBURG  CLEAR     81  73  76 E10       29.95F
SARASOTA       CLEAR     76  73  91 E6        29.95S
VENICE           N/A    N/A N/A N/A MISG        N/A

STATION/POSITION SKY/WX   TEMP    WIND        PRES    WAVE   SWELL
                          AIR SEA DIR/SP/G            HT/PER HT/PER
                          (F)     (DEG/KT/KT) (MB)    (FT/S) (FT/S)
CEDAR KEY                  81     130/  9/ 10 1015.8F
28.5N   84.5W              84 86  110/ 16/ 17 1014.0F   3/ 4
27.3N   84.3W                 87                N/A     2/ 4
CLEARWATER BEACH           80 86   70/  5/  8 1014.3F
MIDDLE TAMPA BAY           79     110/  9/ 11 1014.8S
VENICE                     77 87   80/  7/ 10 1013.9F

$$
FLZ066-069-070-075>078-162-262-165-265-281000-
SOUTHWEST FLORIDA AND KEYS

CITY           SKY/WX    TMP DP  RH WIND       PRES   REMARKS
PUNTA GORDA    MOCLDY    77  74  90 NE9       29.97S
FT MYERS       CLEAR     76  74  93 E5        29.94S
SOUTHWEST INTL CLEAR     76  73  91 E6        29.95S
NAPLES         PTCLDY    79  74  84 E7        29.93S
MARCO ISLAND   SUNNY     77  75  94 E6        29.93F
MARATHON       HVY RAIN  79  79 100 S8G18     29.95R FOG
KEY WEST NAS   PTCLDY    83  76  79 S14       29.93R
KEY WEST INTL  CLEAR     84  76  76 S13       29.93S

STATION/POSITION SKY/WX   TEMP    WIND        PRES    WAVE   SWELL
                          AIR SEA DIR/SP/G            HT/PER HT/PER
                          (F)     (DEG/KT/KT) (MB)    (FT/S) (FT/S)
VENICE                     77 87   80/  7/ 10 1013.9F
NAPLES                     79     100/  3/  7 1014.2S
DRY TORTUGAS               85     180/ 17/ 19 1012.5R
NW FL BAY                  84     210/  5/  6 1013.8F
SAND KEY                   84     170/ 10/ 17 1013.3R
SOMBRERO KEY               82     180/ 15/ 17 1014.2S
LONG KEY                   84 86  190/  9/ 10 1014.5F
MOLASSES REEF              83 87  230/ 18/ 19 1013.8R

$$
FLZ067-068-071>074-168-172>174-281000-
SOUTHEAST FLORIDA

CITY           SKY/WX    TMP DP  RH WIND       PRES   REMARKS
W PALM BEACH   PTCLDY    81  73  76 CALM      29.95S
FT LAUDER-EXEC CLOUDY    83  77  82 E6        29.95S
FT LAUDERDALE  MOCLDY    84  74  71 E7        29.94S
POMPANO BEACH    N/A     85  74  69 E5        29.95S
PEMBROKE PINES MOCLDY    80  77  90 N5        29.95F
OPA LOCKA      CLOUDY    79  76  90 CALM      29.95S
MIAMI          MOCLDY    81  76  84 CALM      29.95S
WEST KENDALL   PTCLDY    80  74  81 CALM      29.94S
HOMESTEAD      CLEAR     78  77  94 CALM      29.94F

STATION/POSITION SKY/WX   TEMP    WIND        PRES    WAVE   SWELL
                          AIR SEA DIR/SP/G            HT/PER HT/PER
                          (F)     (DEG/KT/KT) (MB)    (FT/S) (FT/S)
PORT EVERGLADES            83      90/  4/  6 1013.9
VIRGINIA KEY               83 87  220/  2/  3   N/A
LAKE WORTH                 83 87  120/  5/  7 1014.1F
FOWEY ROCKS                83 87  190/  6/  8 1014.3R
SETTLEMENT POINT           81     130/  3/  3 1015.2S

$$




USA.gov is the U.S. government's official web portal to all federal, state and local government web resources and services.